Regional Weather Roundup
Issued by NWS Green Bay, WI

Home | Current Version | Previous Version | Graphics & Text | Print | Product List | Glossary Off
Versions: 1 2 3 4 5 6 7 8 9 10 11 12 13 14 15 16 17 18 19 20 21 22 23 24 25 26 27 28 29 30 31 32 33 34 35 36 37 38 39 40 41 42 43 44 45 46 47 48 49 50

000
ASUS43 KGRB 222300
RWRGRB

NORTH-CENTRAL AND NORTHEAST WISCONSIN REGIONAL WEATHER ROUNDUP
NATIONAL WEATHER SERVICE GREEN BAY WI
600 PM CDT WED MAR 22 2017

WIZ005-009-010>012-018-019-230000-
NORTH CENTRAL WISCONSIN

CITY           SKY/WX    TMP DP  RH WIND       PRES   REMARKS
IRONWOOD       SUNNY     36   4  26 S9        30.39F
MANITOWISH WTR NOT AVBL
ARBOR VITAE    NOT AVBL
EAGLE RIVER    NOT AVBL
LAND O LAKES   NOT AVBL
RHINELANDER    CLOUDY    35   4  27 S8        30.41F
PHILLIPS       MOSUNNY   35   7  31 S8        30.39F
ANTIGO         NOT AVBL
TOMAHAWK       NOT AVBL
MERRILL        NOT AVBL
$$

WIZ013-073-230000-
NORTHEAST WISCONSIN

CITY           SKY/WX    TMP DP  RH WIND       PRES   REMARKS
IRON MOUNTAIN  SUNNY     33   3  28 S6        30.44S
MARINETTE        N/A    N/A N/A N/A MISG        N/A
$$

WIZ017-030-035>037-045-230000-
CENTRAL WISCONSIN

CITY           SKY/WX    TMP DP  RH WIND       PRES   REMARKS
MEDFORD        NOT AVBL
WAUSAU         SUNNY     34   5  29 SE9       30.43F
MOSINEE        PTSUNNY   34   7  32 S6        30.45F
MARSHFIELD     MOSUNNY   35   7  31 S8        30.42F
WISC RAPIDS    SUNNY     37   7  28 S7        30.46F
STEVENS POINT  NOT AVBL
WAUPACA        NOT AVBL
SHAWANO        MOSUNNY   36  13  39 SE3       30.49F
CLINTONVILLE   SUNNY     34  10  37 SE5       30.49F
WAUTOMA        SUNNY     35  11  36 SE7       30.49S
$$

WIZ038-039-048-051-230000-
FOX VALLEY

CITY           SKY/WX    TMP DP  RH WIND       PRES   REMARKS
NWS GREEN BAY  MOSUNNY   35  19  52 S7        30.51F
APPLETON       PTSUNNY   34   9  35 VRB5      30.49F
OSHKOSH        SUNNY     33  18  53 E5        30.50F
FOND DU LAC    SUNNY     35  19  52 NE8       30.50F
$$

WIZ022-050-052-230000-
EAST CENTRAL WISCONSIN

CITY           SKY/WX    TMP DP  RH WIND       PRES   REMARKS
EPHRAIM        NOT AVBL
WASHINGTON ISL NOT AVBL
STURGEON BAY   SUNNY     26  16  65 E8        30.54F
MANITOWOC      NOT AVBL
SHEBOYGAN      CLOUDY    28  17  63 E9        30.53F
$$

LMZ563-521-522-541>543-230000-
LAKESHORE

STATION/POSITION TIME  TEMP    WIND        PRES    VSBY  WAVE
                       AIR SEA DIR/SP/G                  HT/PER
                 (UTC) (F)     (DEG/KT/KT) (MB)    (MI)  (FT/S)
SHEBOYGAN LKSHOR 2200   26      90/  7/  8 1035.5F
KEWAUNEE LKSHORE 2224   26      90/  1/  3 1033.8
NORTHPORT PIER   2240   25     150/  3/  4 1033.9F
SISTER BAY LKSHO 2235   29     130/  7/ 10   N/A
CHAMBERS ISLAND  2230   29      CALM  /  4 1033.2F
MENOMINEE LKSHOR 2224   27     130/  8/ 10 1032.8
$$




USA.gov is the U.S. government's official web portal to all federal, state and local government web resources and services.